Home   Weather   Taipei   Past weeks
Flag for Taiwan

Past Weather in Taipei, Taiwan — Yesterday and Last 2 Weeks

Now
82 °F

Thunderstorms. Partly sunny.


Feels Like: 92 °F
Forecast: 94 / 79 °F
Wind: 13 mph from West

Location: Sungshan / Taipei

Current Time: Jul 22, 2019 at 4:01:55 pm

Latest Report: Jul 22, 2019 at 3:19 pm


Visibility: 4 mi

Pressure: 29.68 "Hg

Humidity: 89%

Dew Point: 79 °F

Location of TaipeiLocation

Past Weather in Taipei — Graph

°F

Taipei Temperature Yesterday

Maximum temperature yesterday: 99 °F (at 1:00 pm)
Minimum temperature yesterday: 79 °F (at 5:00 pm)
Average temperature yesterday: 85 °F

High & Low Weather Summary for the Past Weeks

 TemperatureHumidityPressure
High99 °F (Jul 10, 12:00 pm)100% (Jul 12, 2:05 pm)29.83 "Hg (Jul 12, 2:05 pm)
Low79 °F (Jul 12, 2:05 pm)47% (Jul 9, 3:10 pm)29.36 "Hg (Jul 18, 1:30 pm)
Average88 °F75%29.64 "Hg
* Reported Jul 7 3:00 pm — Jul 22 3:00 pm, Taipei. Weather by CustomWeather, © 2019

Note: Actual official high and low records may vary slightly from our data, if they occured in-between our weather recording intervals... More about our weather records

Advertising

Taipei Weather History for the Previous 24 Hours

Scroll right to see more
 ConditionsComfort  
Time TempWeatherWind HumidityBarometerVisibility
3:00 pm
Mon, Jul 22
86 °FSprinkles. Partly sunny.7 mph84%29.68 "Hg5 mi
2:36 pm93 °FPartly sunny.12 mph63%29.68 "Hg6 mi
2:00 pm93 °FScattered clouds.13 mph67%29.68 "HgN/A
1:30 pm93 °FPassing clouds.12 mph63%29.68 "HgN/A
1:00 pm95 °FScattered clouds.10 mph60%29.68 "HgN/A
12:55 pm95 °FScattered clouds.12 mph63%29.71 "HgN/A
12:30 pm95 °FScattered clouds.5 mph60%29.71 "HgN/A
12:00 pm95 °FScattered clouds.3 mph60%29.71 "HgN/A
11:30 am93 °FScattered clouds.3 mph63%29.71 "HgN/A
11:00 am90 °FPartly sunny.2 mph67%29.71 "HgN/A
10:30 am90 °FScattered clouds.3 mph71%29.74 "HgN/A
10:00 am88 °FScattered clouds.3 mph75%29.74 "HgN/A
9:30 am88 °FBroken clouds.3 mph75%29.74 "HgN/A
9:00 am82 °FLight rain. Broken clouds.3 mph89%29.77 "HgN/A
8:30 am81 °FLight rain. Partly sunny.6 mph94%29.77 "Hg6 mi
8:00 am81 °FSprinkles. Partly sunny.8 mph89%29.77 "Hg6 mi
7:30 am81 °FSprinkles. Partly sunny.7 mph94%29.74 "HgN/A
7:08 am81 °FSprinkles. Partly sunny.9 mph89%29.74 "HgN/A
6:30 am82 °FPartly sunny.2 mph89%29.74 "HgN/A
6:00 am81 °FPartly sunny.6 mph94%29.71 "HgN/A
5:00 am81 °FPassing clouds.6 mph94%29.71 "HgN/A
4:00 am81 °FPartly cloudy.3 mph89%29.71 "HgN/A
3:00 am81 °FPartly cloudy.2 mph89%29.71 "HgN/A
2:00 am81 °FPartly cloudy.5 mph94%29.71 "HgN/A
1:00 am82 °FPassing clouds.2 mph89%29.74 "HgN/A
12:00 am82 °FPartly cloudy.3 mph89%29.74 "HgN/A
11:30 pm
Sun, Jul 21
82 °FPassing clouds.6 mph89%29.74 "HgN/A
11:00 pm82 °FPassing clouds.2 mph84%29.74 "HgN/A
10:30 pm82 °FPartly cloudy.2 mph89%29.74 "HgN/A
9:30 pm81 °FPassing clouds.6 mph94%29.74 "HgN/A
9:00 pm81 °FPassing clouds.3 mph94%29.74 "HgN/A
8:30 pm81 °FPassing clouds.2 mph94%29.74 "HgN/A
8:00 pm81 °FPassing clouds.2 mph94%29.74 "HgN/A
7:30 pm81 °FPassing clouds.3 mph94%29.71 "HgN/A
7:00 pm81 °FPartly cloudy.1 mph94%29.71 "HgN/A
6:30 pm81 °FBroken clouds.3 mph94%29.71 "HgN/A
6:00 pm81 °FLight rain. Broken clouds.1 mph89%29.71 "HgN/A
5:30 pm79 °FSprinkles. Broken clouds.2 mph94%29.71 "Hg4 mi
5:00 pm79 °FSprinkles. Partly sunny.9 mph94%29.71 "Hg4 mi
4:39 pm81 °FSprinkles. Partly sunny.7 mph94%29.71 "Hg3 mi
4:30 pm81 °FThundershowers. Partly sunny.8 mph89%29.71 "Hg3 mi
4:17 pm81 °FThundershowers. Partly sunny.7 mph89%29.71 "Hg3 mi
4:00 pm81 °FThundershowers. Partly sunny.8 mph89%29.71 "Hg5 mi
Weather by CustomWeather, © 2019

See weather overview